Temp
5 5 4 4 5 4 5 5 4 2 1 2 1 1 1 -0 -1 -1 -1 -1 -1 -1 -1 -0 0 0 0 0 0 0 -0 -0 0 0 0 1 1 1
4 4 4 3 3 2 2 3 3 3 3 2 1 2 0 -1 -2 -2 -2 -2 -1 -2 -2 -2 -2 -1 -1 -1 -1 -1 -1 -1 -1 -1 -1 -1 -0 -0
3 3 3 2 2 1 1 2 2 2 3 1 1 0 -1 -2 -2 -3 -3 -3 -2 -3 -3 -3 -3 -3 -3 -2 -2 -2 -2 -2 -2 -2 -2 -2 -2 -1
0 1 0 0 1 -1 0 -0 0 0 2 1 0 -1 -3 -3 -3 -3 -3 -3 -3 -3 -4 -4 -4 -4 -4 -3 -3 -3 -3 -3 -4 -4 -4 -4 -4 -4
0 -0 -0 -0 -1 -1 -0 -1 -2 1 1 0 -1 -2 -3 -3 -3 -4 -4 -4 -4 -4 -4 -5 -4 -4 -4 -4 -4 -4 -4 -4 -5 -5 -5 -5 -5 -4
-0 -0 -1 -1 -1 -0 -1 -1 -1 -1 -0 -2 -2 -2 -3 -4 -5 -4 -5 -5 -5 -5 -5 -5 -5 -5 -5 -5 -5 -5 -5 -5 -5 -5 -6 -6 -6 -6
-0 -1 -1 -1 -1 -1 -2 -2 -2 -2 -2 -4 -3 -4 -4 -6 -6 -5 -6 -5 -5 -5 -5 -5 -5 -5 -6 -6 -6 -6 -6 -6 -6 -7 -7 -7 -7 -6
-0 -1 -1 -3 -2 -4 -4 -3 -3 -3 -4 -4 -4 -5 -6 -6 -5 -6 -6 -6 -7 -6 -6 -5 -6 -6 -6 -6 -6 -6 -6 -6 -6 -7 -8 -8 -8 -8
-1 -2 -2 -3 -3 -4 -4 -4 -4 -4 -4 -5 -6 -5 -5 -6 -7 -6 -7 -7 -7 -7 -7 -6 -7 -7 -7 -6 -7 -6 -6 -6 -7 -8 -9 -9 -8 -8
-2 -2 -2 -3 -4 -4 -4 -4 -4 -5 -6 -6 -7 -7 -6 -7 -7 -7 -7 -8 -8 -8 -9 -10 -8 -8 -8 -8 -8 -7 -8 -9 -10 -10 -10 -9 -10 -10
-2 -3 -4 -4 -4 -4 -4 -5 -6 -6 -7 -8 -7 -7 -7 -7 -7 -7 -8 -8 -9 -9 -10 -11 -10 -10 -10 -9 -9 -9 -10 -11 -10 -10 -10 -10 -11 -12
-4 -5 -5 -5 -4 -5 -6 -6 -7 -7 -7 -8 -7 -8 -8 -8 -9 -9 -10 -11 -12 -12 -12 -13 -13 -13 -14 -12 -12 -12 -12 -12 -12 -11 -11 -12 -13 -13
-5 -5 -5 -5 -6 -6 -7 -8 -8 -8 -8 -8 -8 -9 -9 -10 -11 -11 -11 -12 -13 -14 -14 -14 -14 -14 -16 -16 -14 -14 -14 -13 -13 -13 -13 -13 -13 -15
-4 -5 -6 -6 -7 -8 -8 -9 -9 -9 -9 -9 -9 -10 -11 -11 -12 -12 -13 -13 -14 -14 -14 -15 -15 -16 -16 -17 -16 -14 -15 -15 -15 -15 -15 -16 -15 -14
-5 -6 -7 -8 -8 -9 -9 -9 -9 -9 -9 -9 -10 -11 -12 -12 -12 -13 -13 -14 -14 -15 -15 -15 -15 -16 -16 -17 -17 -17 -17 -16 -16 -16 -17 -17 -16 -17
-6 -7 -8 -8 -9 -9 -10 -10 -10 -10 -11 -11 -12 -12 -12 -13 -13 -14 -14 -14 -15 -14 -14 -15 -15 -16 -16 -17 -18 -18 -17 -18 -17 -17 -17 -19 -18 -16
-7 -8 -8 -9 -9 -9 -10 -10 -10 -11 -11 -12 -12 -13 -13 -13 -14 -14 -14 -15 -15 -15 -15 -15 -16 -16 -17 -18 -18 -17 -17 -17 -17 -18 -19 -19 -18 -17
-7 -7 -8 -8 -9 -10 -10 -11 -11 -11 -12 -12 -13 -13 -13 -14 -14 -14 -15 -15 -16 -17 -17 -17 -17 -18 -18 -17 -17 -17 -18 -18 -18 -19 -19 -20 -19 -18
-7 -7 -8 -9 -10 -10 -11 -11 -12 -12 -12 -13 -13 -13 -13 -14 -15 -15 -16 -16 -17 -17 -18 -18 -19 -19 -20 -20 -19 -18 -19 -18 -19 -19 -21 -21 -21 -19
-8 -8 -9 -10 -11 -11 -11 -12 -12 -12 -12 -13 -13 -14 -14 -15 -15 -16 -16 -17 -18 -18 -18 -19 -19 -20 -21 -20 -21 -19 -19 -20 -21 -21 -21 -21 -21 -21
-8 -9 -10 -11 -11 -11 -11 -12 -12 -12 -13 -13 -14 -14 -15 -15 -16 -16 -17 -18 -19 -19 -19 -19 -19 -20 -20 -21 -21 -19 -19 -20 -21 -23 -23 -23 -23 -22
-9 -10 -10 -10 -11 -11 -11 -12 -12 -13 -14 -14 -14 -15 -15 -16 -17 -17 -18 -19 -19 -20 -19 -20 -20 -20 -21 -21 -21 -21 -20 -20 -20 -21 -21 -23 -23 -23
-10 -10 -11 -11 -11 -12 -12 -13 -13 -14 -14 -15 -15 -15 -16 -17 -17 -18 -18 -19 -20 -20 -20 -20 -20 -21 -21 -22 -23 -22 -22 -21 -21 -21 -19 -21 -23 -23
Height
1470 1476 1482 1489 1491 1493 1495 1499 1504 1506 1511 1513 1514 1517 1521 1524 1526 1526 1526 1525 1525 1525 1524 1523 1523 1523 1522 1522 1521 1520 1518 1517 1515 1513 1511 1508 1508 1506
1462 1472 1471 1479 1480 1487 1493 1497 1499 1502 1506 1507 1509 1512 1517 1520 1523 1524 1523 1522 1521 1521 1521 1520 1519 1519 1518 1517 1516 1514 1513 1512 1511 1509 1508 1506 1504 1502
1457 1461 1466 1472 1477 1480 1490 1492 1493 1499 1500 1502 1504 1508 1512 1516 1518 1519 1519 1518 1518 1518 1517 1516 1516 1515 1514 1513 1512 1510 1509 1507 1505 1503 1502 1501 1498 1496
1448 1452 1460 1463 1468 1474 1479 1483 1488 1493 1494 1497 1500 1504 1507 1510 1512 1514 1515 1514 1514 1513 1512 1512 1512 1511 1510 1509 1508 1506 1504 1501 1499 1498 1496 1495 1491 1489
1440 1445 1451 1456 1461 1466 1471 1476 1481 1486 1488 1492 1494 1498 1501 1504 1507 1509 1511 1511 1511 1510 1508 1508 1507 1505 1505 1504 1503 1500 1499 1496 1493 1492 1489 1488 1486 1483
1437 1442 1447 1451 1456 1461 1465 1470 1477 1479 1482 1487 1492 1495 1497 1499 1502 1505 1506 1506 1506 1506 1504 1503 1502 1500 1499 1498 1496 1494 1492 1490 1487 1485 1483 1481 1480 1476
1433 1438 1443 1448 1453 1458 1462 1467 1472 1475 1479 1484 1487 1489 1491 1493 1497 1500 1502 1503 1502 1501 1500 1499 1497 1494 1492 1491 1491 1489 1486 1483 1481 1478 1475 1474 1471 1468
1431 1436 1439 1445 1450 1455 1461 1466 1470 1472 1475 1478 1481 1482 1485 1489 1491 1492 1494 1496 1498 1495 1491 1494 1492 1490 1485 1485 1484 1480 1478 1477 1474 1470 1468 1466 1465 1462
1426 1432 1434 1439 1446 1453 1458 1462 1466 1468 1470 1473 1476 1479 1481 1483 1485 1486 1487 1487 1488 1490 1484 1487 1484 1481 1479 1480 1477 1473 1471 1470 1468 1463 1461 1459 1457 1454
1424 1428 1432 1438 1444 1451 1456 1459 1462 1465 1468 1470 1471 1474 1476 1477 1479 1480 1480 1481 1482 1483 1480 1476 1477 1473 1471 1470 1469 1467 1464 1463 1461 1458 1455 1452 1448 1445
1422 1427 1431 1439 1443 1448 1452 1455 1459 1462 1465 1467 1469 1469 1471 1471 1472 1474 1475 1477 1475 1477 1473 1471 1468 1464 1465 1461 1461 1459 1458 1457 1455 1452 1447 1444 1440 1437
1419 1426 1431 1437 1442 1444 1449 1452 1454 1459 1462 1463 1466 1466 1468 1468 1468 1468 1469 1471 1473 1469 1471 1467 1465 1460 1455 1452 1452 1452 1450 1448 1445 1443 1440 1436 1432 1428
1415 1422 1430 1435 1439 1441 1446 1449 1454 1455 1459 1459 1461 1463 1464 1465 1465 1464 1466 1464 1468 1467 1466 1463 1459 1458 1455 1448 1443 1442 1441 1439 1436 1432 1430 1428 1424 1422
1411 1421 1427 1433 1437 1441 1440 1446 1451 1455 1455 1457 1457 1460 1462 1462 1463 1461 1461 1462 1464 1463 1460 1458 1454 1452 1448 1442 1437 1434 1432 1430 1427 1422 1419 1416 1416 1414
1411 1420 1425 1430 1434 1439 1440 1444 1444 1451 1452 1453 1456 1458 1458 1460 1460 1458 1459 1458 1459 1458 1455 1452 1448 1445 1442 1436 1430 1427 1423 1419 1417 1413 1411 1408 1404 1402
1411 1417 1424 1428 1433 1435 1437 1443 1442 1445 1450 1450 1455 1455 1455 1455 1454 1455 1455 1454 1452 1450 1448 1445 1442 1439 1433 1429 1424 1418 1418 1413 1408 1404 1400 1396 1395 1393
1409 1413 1419 1426 1428 1433 1435 1437 1437 1442 1446 1449 1450 1452 1451 1451 1451 1451 1449 1448 1445 1441 1438 1437 1434 1430 1425 1421 1415 1412 1407 1403 1400 1395 1391 1386 1383 1382
1407 1412 1414 1421 1428 1430 1433 1432 1434 1440 1443 1445 1446 1447 1447 1447 1446 1445 1443 1440 1436 1434 1430 1428 1424 1420 1415 1410 1409 1403 1399 1395 1390 1386 1383 1377 1371 1370
1405 1408 1413 1421 1425 1425 1426 1429 1432 1436 1439 1440 1442 1442 1443 1442 1440 1438 1435 1432 1428 1426 1423 1420 1417 1414 1406 1399 1396 1398 1391 1388 1382 1376 1374 1370 1362 1356
1404 1408 1412 1416 1419 1420 1423 1425 1429 1432 1435 1436 1438 1438 1436 1435 1433 1430 1427 1424 1421 1418 1414 1413 1410 1407 1402 1395 1386 1382 1385 1380 1376 1368 1363 1358 1353 1348
1401 1405 1409 1412 1414 1417 1420 1424 1427 1429 1431 1432 1432 1431 1430 1427 1425 1422 1419 1417 1414 1410 1406 1403 1402 1398 1393 1388 1379 1374 1373 1373 1370 1362 1356 1350 1342 1335
1400 1403 1406 1409 1412 1415 1418 1421 1424 1425 1425 1426 1426 1424 1422 1419 1416 1414 1412 1408 1406 1402 1398 1394 1391 1388 1384 1379 1372 1365 1361 1358 1357 1354 1350 1346 1340 1329
1398 1401 1404 1407 1411 1413 1416 1418 1419 1419 1420 1419 1418 1415 1413 1410 1408 1405 1403 1400 1397 1393 1390 1385 1382 1379 1375 1371 1365 1358 1353 1348 1343 1337 1334 1333 1329 1323
Wind_Speed
31 30 30 31 23 18 16 14 16 17 24 26 24 24 23 19 16 12 12 12 12 13 13 14 14 14 15 15 16 17 17 17 18 19 19 21 23 23
31 34 31 26 22 18 15 16 15 18 24 25 26 25 26 23 19 15 14 14 14 13 14 14 15 16 18 19 19 20 21 22 22 22 23 23 22 24
35 34 34 36 31 27 25 18 15 21 22 23 24 24 23 24 22 17 17 17 16 14 15 15 16 18 21 22 22 23 24 25 25 26 27 26 25 26
43 41 37 34 39 28 29 24 23 26 27 20 16 20 25 26 21 21 21 19 19 18 17 18 19 22 23 23 23 24 26 26 28 28 26 27 28 28
34 39 42 33 31 34 31 26 21 25 22 21 19 24 28 25 23 22 21 20 20 21 22 22 23 23 24 23 23 25 26 27 28 28 27 28 31 33
28 28 29 31 33 33 29 25 25 23 20 15 22 26 26 22 23 23 22 22 22 24 25 23 23 23 24 24 23 24 25 27 28 30 30 30 32 32
23 25 26 24 23 21 21 24 26 20 22 21 24 28 28 23 24 23 21 22 23 23 23 22 22 23 23 22 21 22 25 28 30 32 31 29 31 33
24 22 21 21 22 19 22 21 20 20 19 23 23 19 18 22 20 20 19 19 19 20 23 19 24 23 23 21 23 24 27 30 30 28 28 30 29 31
23 23 24 24 23 22 23 22 20 21 21 18 16 19 20 18 20 22 21 20 19 18 23 22 21 23 24 23 25 27 28 28 27 26 25 29 32 34
21 22 21 21 21 22 21 21 21 20 19 17 17 20 22 21 19 18 18 18 18 17 20 22 21 24 27 27 27 26 26 21 17 29 30 31 31 32
21 19 19 20 20 19 18 17 18 17 17 18 19 16 16 17 17 16 15 17 17 18 19 19 20 30 32 30 26 22 19 27 32 30 28 29 30 31
21 23 21 20 19 17 15 16 15 14 13 13 13 13 13 13 13 12 13 14 16 14 12 21 28 28 23 28 22 34 36 36 34 28 28 28 30 33
25 25 23 21 17 14 13 11 11 11 12 12 12 12 12 11 11 11 12 12 13 13 16 22 27 27 27 34 38 39 39 36 34 34 32 30 29 25
24 24 20 17 15 13 11 10 8 9 10 10 10 11 10 10 9 8 9 11 14 18 22 25 27 29 32 36 40 40 39 37 36 35 31 24 30 30
18 18 17 15 14 12 10 8 7 7 7 7 7 8 8 9 8 8 12 15 20 23 26 27 26 26 28 33 38 39 39 39 33 24 32 34 31 29
18 17 16 16 13 13 11 8 5 5 6 5 6 7 7 8 10 12 16 22 27 29 28 25 26 29 32 31 31 36 35 35 36 34 35 35 36 36
21 21 21 19 18 14 12 8 6 7 6 6 7 8 10 12 13 17 22 27 30 31 28 28 27 28 28 30 35 34 33 32 34 37 36 41 40 36
21 21 19 17 15 13 11 9 10 9 8 7 8 10 13 16 18 22 26 28 28 27 29 30 30 30 32 35 30 29 33 34 35 38 38 39 42 39
16 16 15 16 15 13 11 12 12 10 9 10 12 14 18 20 22 24 26 27 28 29 30 29 29 28 33 39 39 30 29 35 38 39 36 39 42 44
16 16 15 14 14 13 12 12 11 12 13 13 16 18 20 22 25 26 26 27 30 31 32 31 29 28 30 35 39 42 35 32 33 39 40 38 41 42
16 16 14 13 13 13 12 13 13 13 14 16 18 19 22 25 27 26 27 29 30 31 34 34 31 30 31 33 39 41 38 33 31 31 34 40 43 42
13 14 14 14 14 11 10 11 13 13 15 18 20 22 25 26 27 28 30 31 31 32 34 34 32 31 31 31 37 40 41 38 33 32 31 27 32 38
12 13 14 12 10 10 11 11 12 14 17 20 22 24 25 27 28 30 30 31 32 33 32 34 33 31 31 32 33 37 38 39 39 39 36 33 29 32
Wind_Direction
221 230 234 236 230 230 225 229 226 206 217 226 233 229 230 233 242 251 267 282 294 302 302 304 309 309 311 311 317 320 320 316 312 310 308 308 309 310
227 217 209 207 214 228 236 225 236 252 235 235 228 230 222 225 233 243 258 269 281 294 297 305 308 310 308 309 313 315 315 313 311 309 307 306 305 302
211 216 223 231 235 234 239 245 236 234 237 224 227 226 217 217 222 231 249 261 278 284 287 296 300 301 305 309 310 310 309 307 306 304 305 306 302 299
228 237 235 236 249 220 234 229 234 232 228 227 211 218 213 208 218 232 245 260 274 279 282 289 293 296 296 298 301 303 302 302 302 301 303 302 301 301
237 237 243 230 221 228 235 225 221 218 211 230 240 209 203 209 220 232 239 254 265 271 277 284 289 291 292 294 296 295 297 298 299 299 297 294 297 302
235 240 235 243 238 241 222 220 214 222 245 228 214 212 210 212 224 227 234 246 257 268 276 281 283 286 292 295 296 296 296 295 294 293 295 297 298 297
233 228 234 234 225 224 216 210 215 215 219 209 215 223 227 222 227 232 243 252 257 263 269 275 279 284 288 292 295 294 294 294 295 297 300 297 291 291
225 226 221 219 220 205 210 211 221 224 230 234 233 233 228 223 233 246 255 266 272 272 273 272 284 287 290 292 294 294 294 295 296 297 291 292 297 298
218 221 217 218 212 213 215 215 218 236 242 229 220 224 230 240 251 263 265 267 273 276 283 288 287 293 293 295 297 298 298 296 294 293 296 298 298 296
222 225 222 214 207 212 215 241 243 235 232 233 232 236 247 255 253 252 259 269 277 283 289 298 298 296 298 306 307 303 300 293 293 302 300 298 295 293
219 214 203 207 212 229 239 238 234 235 235 234 243 242 241 244 246 255 268 276 285 291 300 299 305 308 308 310 308 306 298 294 302 302 301 297 296 297
199 198 204 217 237 241 236 231 227 227 230 236 234 237 243 247 263 270 273 285 293 308 304 312 315 320 317 314 307 305 302 305 307 306 304 302 301 299
196 200 211 225 223 221 217 212 216 222 226 230 240 247 254 263 264 274 281 286 295 305 308 310 310 309 304 302 302 302 304 305 306 307 305 303 298 296
200 211 213 208 201 202 195 197 208 222 230 236 241 246 245 249 263 280 298 306 307 308 312 311 303 302 298 296 296 301 302 304 305 307 304 300 301 297
202 202 191 191 191 184 182 195 198 232 226 226 227 227 231 250 266 297 312 309 308 309 308 307 304 300 294 292 294 297 303 308 308 302 302 302 302 301
178 180 185 186 184 185 191 207 220 223 218 215 227 250 271 291 303 306 304 305 306 309 307 307 304 299 296 293 294 296 303 300 303 302 307 305 303 302
176 176 181 186 188 196 201 216 228 224 228 242 261 276 290 295 299 299 303 304 303 305 307 308 305 303 299 298 298 301 304 302 305 307 306 306 304 304
179 185 187 191 199 204 215 237 221 226 238 260 276 290 298 300 297 297 297 300 301 306 307 310 312 309 306 303 303 306 303 304 305 307 307 305 306 305
187 185 191 197 205 217 231 222 224 234 250 274 286 290 290 290 291 295 297 300 303 306 306 308 310 312 309 305 308 308 303 307 307 306 307 304 303 303
196 195 199 207 219 224 224 228 241 244 259 271 277 283 285 288 292 296 298 301 302 303 302 306 308 309 304 303 303 303 308 305 304 304 306 305 301 300
200 201 205 208 211 219 235 242 249 250 262 271 278 284 289 291 294 296 298 299 299 301 302 305 308 306 304 302 297 302 307 308 305 300 303 298 301 306
186 191 199 211 220 231 244 246 249 261 267 275 283 289 291 293 295 295 296 297 299 300 302 305 307 306 303 300 301 304 307 310 311 310 305 290 289 290
201 206 206 212 226 227 231 246 260 269 277 284 289 293 293 295 295 296 297 299 301 301 304 304 305 304 303 303 304 306 309 313 316 317 314 319 301 290